Date String (YYYY-MM-DD hh:mm:ss) UTC,Instrument flags,absolute air pressure of the measurement (hPa),sample flow rate (lpm),inlet stack bypass flow (lpm),air temperature of the measurement (°C),ambient temperature measured by the external sensor (°C),aerosol sample conditioner tube jacket temperature (°C),OPC LED temperature (°C),internal box temperature (°C),relative humidity of the measurement (%),span deviation,mass concentration of particles derived from Lorenz-Mie calculation of OPC scattering (μg/m³),mass concentration of particles derived from Lorenz-Mie calculation of OPC scattering (μg/m³),mass concentration of particles derived from Lorenz-Mie calculation of OPC scattering (μg/m³)
DateTimeUTC,F1_M11,P_M11,Q1_M11,Q2_M11,T1_M11,T2_M11,T3_M11,T4_M11,T5_M11,U1_M11,ZSPAN_M11,X0_M11,X2_M11,X1_M11
2024-02-29 16:00:00,SystemResetWarning,0826.0,5.00,000.00,019.0,018.6,000.0,027.2,020.6,11.0,0000.0,0014.30,0004.90,0003.51
2024-02-29 16:01:00,SystemResetWarning,0825.9,5.00,000.00,019.0,018.6,000.0,027.2,020.7,10.9,0000.0,0014.18,0004.87,0003.51
2024-02-29 16:02:00,SystemResetWarning,0825.9,5.00,000.00,019.1,018.6,000.0,027.2,020.7,11.1,0000.0,0013.92,0004.81,0003.50
2024-02-29 16:03:00,SystemResetWarning,0825.9,5.00,000.00,019.1,018.6,000.0,027.2,020.7,11.2,0000.0,0013.73,0004.77,0003.50
2024-02-29 16:04:00,SystemResetWarning,0825.9,4.99,000.00,019.1,018.7,000.0,027.2,020.7,11.0,0000.0,0014.18,0004.77,0003.48
2024-02-29 16:05:00,SystemResetWarning,0825.9,5.00,000.00,019.1,018.7,000.0,027.2,020.8,10.8,0000.0,0014.66,0004.74,0003.47
2024-02-29 16:06:00,SystemResetWarning,0825.9,5.00,000.00,019.1,018.7,000.0,027.2,020.8,10.6,0000.0,0015.07,0004.78,0003.47
2024-02-29 16:07:00,SystemResetWarning,0825.9,5.00,000.00,019.1,018.7,000.0,027.2,020.8,10.5,0000.0,0014.84,0004.80,0003.46
2024-02-29 16:08:00,SystemResetWarning,0825.9,5.00,000.00,019.2,018.7,000.0,027.3,020.8,10.6,0000.0,0015.27,0004.83,0003.45
2024-02-29 16:09:00,SystemResetWarning,0825.9,5.00,000.00,019.2,018.7,000.0,027.3,020.8,10.8,0000.0,0013.86,0004.79,0003.44
2024-02-29 16:10:00,SystemResetWarning,0825.9,5.00,000.00,019.2,018.7,000.0,027.3,020.8,11.0,0000.0,0013.04,0004.75,0003.43
2024-02-29 16:11:00,SystemResetWarning,0825.9,5.00,000.00,019.2,018.7,000.0,027.3,020.8,10.9,0000.0,0013.66,0004.68,0003.44
2024-02-29 16:12:00,SystemResetWarning,0825.9,4.99,000.00,019.2,018.8,000.0,027.3,020.9,10.9,0000.0,0013.86,0004.67,0003.46
2024-02-29 16:13:00,SystemResetWarning,0825.9,4.99,000.00,019.2,018.8,000.0,027.3,020.9,10.6,0000.0,0014.66,0004.75,0003.48
2024-02-29 16:14:00,SystemResetWarning,0825.9,5.01,000.00,019.3,018.8,000.0,027.3,020.9,10.5,0000.0,0014.98,0004.84,0003.49
2024-02-29 16:15:00,SystemResetWarning,0825.9,5.01,000.00,019.3,018.8,000.0,027.4,020.9,11.0,0000.0,0014.51,0004.91,0003.51
2024-02-29 16:16:00,SystemResetWarning,0825.9,5.01,000.00,019.3,018.8,000.0,027.4,020.9,11.4,0000.0,0013.78,0004.90,0003.52
2024-02-29 16:17:00,SystemResetWarning,0825.9,4.99,000.00,019.3,018.8,000.0,027.4,020.9,11.1,0000.0,0013.54,0004.92,0003.55
2024-02-29 16:18:00,SystemResetWarning,0825.9,4.99,000.00,019.3,018.8,000.0,027.4,020.9,11.7,0000.0,0013.34,0004.90,0003.58
2024-02-29 16:19:00,SystemResetWarning,0825.9,5.00,000.00,019.3,018.8,000.0,027.4,020.9,11.6,0000.0,0012.85,0004.89,0003.61
2024-02-29 16:20:00,SystemResetWarning,0825.9,4.99,000.00,019.3,018.9,000.0,027.4,021.0,11.4,0000.0,0012.92,0004.93,0003.63
2024-02-29 16:21:00,SystemResetWarning,0825.9,5.00,000.00,019.3,018.9,000.0,027.5,021.0,11.1,0000.0,0013.07,0004.96,0003.66
2024-02-29 16:22:00,SystemResetWarning,0825.9,5.00,000.00,019.4,018.9,000.0,027.5,021.0,11.2,0000.0,0012.85,0005.03,0003.68
2024-02-29 16:23:00,SystemResetWarning,0825.9,5.00,000.00,019.4,018.9,000.0,027.5,021.0,11.9,0000.0,0012.40,0005.03,0003.68
2024-02-29 16:24:00,SystemResetWarning,0825.9,5.00,000.00,019.4,018.9,000.0,027.5,021.0,12.0,0000.0,0011.80,0004.99,0003.69
2024-02-29 16:25:00,SystemResetWarning,0825.9,5.01,000.00,019.4,018.9,000.0,027.5,021.0,11.8,0000.0,0011.69,0004.98,0003.71
2024-02-29 16:26:00,SystemResetWarning,0825.9,5.00,000.00,019.4,019.0,000.0,027.5,021.0,11.7,0000.0,0011.96,0005.05,0003.74
2024-02-29 16:27:00,SystemResetWarning,0825.8,5.00,000.00,019.4,019.0,000.0,027.5,021.1,11.7,0000.0,0012.97,0005.16,0003.77
2024-02-29 16:28:00,SystemResetWarning,0825.9,4.99,000.00,019.5,019.0,000.0,027.6,021.1,11.5,0000.0,0013.79,0005.16,0003.78
2024-02-29 16:29:00,SystemResetWarning,0825.9,5.00,000.00,019.5,019.0,000.0,027.6,021.1,11.0,0000.0,0014.09,0005.17,0003.78
2024-02-29 16:30:00,SystemResetWarning,0825.9,5.00,000.00,019.5,019.0,000.0,027.6,021.1,10.6,0000.0,0013.97,0005.21,0003.80
2024-02-29 16:31:00,SystemResetWarning,0825.9,5.00,000.00,019.5,019.0,000.0,027.6,021.1,10.2,0000.0,0014.13,0005.29,0003.82
2024-02-29 16:32:00,SystemResetWarning,0825.9,5.01,000.00,019.5,019.1,000.0,027.6,021.1,10.9,0000.0,0014.71,0005.31,0003.83
2024-02-29 16:33:00,SystemResetWarning,0825.9,5.02,000.00,019.5,019.1,000.0,027.6,021.2,10.7,0000.0,0015.00,0005.32,0003.84
2024-02-29 16:34:00,SystemResetWarning,0825.9,4.99,000.00,019.5,019.1,000.0,027.6,021.2,10.7,0000.0,0015.51,0005.37,0003.86
2024-02-29 16:35:00,SystemResetWarning,0825.9,5.00,000.00,019.6,019.1,000.0,027.7,021.2,11.0,0000.0,0015.63,0005.42,0003.88
2024-02-29 16:36:00,SystemResetWarning,0825.8,5.00,000.00,019.6,019.1,000.0,027.7,021.2,10.9,0000.0,0015.62,0005.42,0003.89
2024-02-29 16:37:00,SystemResetWarning,0825.8,5.01,000.00,019.6,019.1,000.0,027.7,021.2,10.9,0000.0,0014.84,0005.34,0003.90
2024-02-29 16:38:00,SystemResetWarning,0825.8,5.01,000.00,019.6,019.2,000.0,027.7,021.2,10.8,0000.0,0014.06,0005.31,0003.91
2024-02-29 16:39:00,SystemResetWarning,0825.8,5.01,000.00,019.6,019.2,000.0,027.7,021.2,10.8,0000.0,0013.52,0005.37,0003.95
2024-02-29 16:40:00,SystemResetWarning,0825.8,5.00,000.00,019.6,019.2,000.0,027.7,021.3,11.1,0000.0,0013.57,0005.43,0003.98
2024-02-29 16:41:00,SystemResetWarning,0825.8,5.00,000.00,019.7,019.2,000.0,027.8,021.3,10.6,0000.0,0013.54,0005.44,0003.99
2024-02-29 16:42:00,SystemResetWarning,0825.8,4.99,000.00,019.7,019.2,000.0,027.8,021.3,10.6,0000.0,0013.75,0005.45,0004.00
2024-02-29 16:43:00,SystemResetWarning,0825.9,4.99,000.00,019.7,019.2,000.0,027.8,021.3,10.8,0000.0,0013.92,0005.49,0004.01
2024-02-29 16:44:00,SystemResetWarning,0825.9,5.01,000.00,019.7,019.3,000.0,027.8,021.3,10.7,0000.0,0013.01,0005.48,0004.00
2024-02-29 16:45:00,SystemResetWarning,0825.9,5.01,000.00,019.7,019.3,000.0,027.8,021.4,10.7,0000.0,0012.55,0005.43,0003.99
2024-02-29 16:46:00,SystemResetWarning,0825.8,4.98,000.00,019.7,019.3,000.0,027.8,021.4,10.4,0000.0,0013.47,0005.43,0003.99
2024-02-29 16:47:00,SystemResetWarning,0825.8,4.99,000.00,019.8,019.3,000.0,027.9,021.4,10.1,0000.0,0013.77,0005.39,0003.99
2024-02-29 16:48:00,SystemResetWarning,0825.8,5.00,000.00,019.8,019.3,000.0,027.9,021.4,10.1,0000.0,0014.54,0005.36,0003.98
2024-02-29 16:49:00,SystemResetWarning,0825.8,5.01,000.00,019.8,019.3,000.0,027.9,021.4,10.2,0000.0,0014.80,0005.31,0003.96
2024-02-29 16:50:00,SystemResetWarning,0825.8,5.01,000.00,019.8,019.3,000.0,027.9,021.4,10.2,0000.0,0014.78,0005.25,0003.93
2024-02-29 16:51:00,SystemResetWarning,0825.8,5.00,000.00,019.8,019.4,000.0,027.9,021.5,09.9,0000.0,0015.13,0005.22,0003.90
2024-02-29 16:52:00,SystemResetWarning,0825.8,5.00,000.00,019.8,019.4,000.0,027.9,021.5,10.2,0000.0,0015.52,0005.22,0003.89
2024-02-29 16:53:00,SystemResetWarning,0825.8,4.99,000.00,019.9,019.4,000.0,027.9,021.5,10.5,0000.0,0015.39,0005.19,0003.87
2024-02-29 16:54:00,SystemResetWarning,0825.8,5.00,000.00,019.9,019.4,000.0,028.0,021.5,10.7,0000.0,0015.48,0005.13,0003.85
2024-02-29 16:55:00,SystemResetWarning,0825.8,5.00,000.00,019.9,019.4,000.0,028.0,021.5,11.2,0000.0,0015.49,0005.12,0003.86
2024-02-29 16:56:00,SystemResetWarning,0825.8,5.01,000.00,019.9,019.5,000.0,028.0,021.6,11.5,0000.0,0015.72,0005.15,0003.85
2024-02-29 16:57:00,SystemResetWarning,0825.8,5.01,000.00,019.9,019.5,000.0,028.0,021.6,11.8,0000.0,0015.08,0005.13,0003.83
2024-02-29 16:58:00,SystemResetWarning,0825.8,5.00,000.00,019.9,019.5,000.0,028.0,021.6,11.9,0000.0,0014.81,0005.15,0003.81
2024-02-29 16:59:00,SystemResetWarning,0825.7,4.99,000.00,020.0,019.5,000.0,028.0,021.6,11.9,0000.0,0014.38,0005.20,0003.78
